STARLINK-32193 (60428 NORAD) Tracking and Keplerian Element Data

This shows tracking and keplerian element data for the satellite.

Feedback or suggestion? Click here.




ElementValue
Catalog60428
NameSTARLINK-32193
Epoch Orbit1080
Epoch Day286.69262089
Epoch Year2024
RAAN80.1868
Inclination53.1623
Eccentricity8.35E-05
Argument of Perigee87.0833
Mean Anonmoly273.0263
Mean Motion15.30172264
Decay Rate2.571E-05
L11 60428U 24144D 24286.69262089 .00002571 00000+0 98969-4 0 9998
L22 60428 53.1623 80.1868 0000835 87.0833 273.0263 15.30172264 10801



Live tracking and technical data element details for STARLINK-32193 (NORAD 60428). STARLINK-32193 can be tracked NOW for your location showing map with azimuth and elevation plus other details from your city location.







IsCatalogInMostPopularTable: catalog: 60428, numindb: 7
Update: records affected: 1



GetName: 60428 STARLINK-32193

Hit Count: updated at: Wed, 04 Dec 2024 18:08:45 GMT